TimeEDT,TemperatureF,Dew PointF,Humidity,Sea Level PressureIn,VisibilityMPH,Wind Direction,Wind SpeedMPH,Gust SpeedMPH,PrecipitationIn,Events,Conditions,WindDirDegrees,DateUTC
12:53 AM,63.0,57.9,84,29.82,10.0,SSW,3.5,-,0.00,,Mostly Cloudy,210,2014-03-12 04:53:00
1:53 AM,62.1,57.9,86,29.80,10.0,SSE,4.6,-,0.00,,Mostly Cloudy,160,2014-03-12 05:53:00
2:53 AM,62.1,57.9,86,29.76,10.0,ESE,3.5,-,0.00,Rain,Light Rain,110,2014-03-12 06:53:00
3:53 AM,62.1,60.1,93,29.73,10.0,South,5.8,-,0.00,,Clear,180,2014-03-12 07:53:00
4:53 AM,64.9,62.1,90,29.73,10.0,SSW,5.8,-,0.00,,Overcast,200,2014-03-12 08:53:00
5:32 AM,64.9,62.1,90,29.73,10.0,SSW,6.9,-,N/A,,Mostly Cloudy,200,2014-03-12 09:32:00
5:53 AM,64.9,63.0,93,29.73,10.0,SSW,5.8,-,N/A,,Overcast,210,2014-03-12 09:53:00
6:10 AM,64.9,63.0,93,29.75,10.0,SW,8.1,-,N/A,,Overcast,220,2014-03-12 10:10:00
6:30 AM,66.0,64.0,93,29.75,10.0,SSW,8.1,-,N/A,,Overcast,200,2014-03-12 10:30:00
6:53 AM,66.0,64.0,93,29.75,10.0,SW,6.9,-,N/A,,Overcast,220,2014-03-12 10:53:00
7:25 AM,66.9,64.0,90,29.75,10.0,WSW,10.4,-,N/A,,Scattered Clouds,250,2014-03-12 11:25:00
7:53 AM,66.9,63.0,87,29.75,10.0,WSW,16.1,21.9,N/A,,Scattered Clouds,240,2014-03-12 11:53:00
8:53 AM,68.0,63.0,84,29.77,10.0,West,13.8,-,N/A,,Clear,260,2014-03-12 12:53:00
9:53 AM,71.1,61.0,70,29.78,10.0,WSW,11.5,-,N/A,,Partly Cloudy,250,2014-03-12 13:53:00
10:53 AM,73.9,62.1,66,29.78,10.0,West,18.4,25.3,N/A,,Mostly Cloudy,260,2014-03-12 14:53:00
11:39 AM,73.0,62.1,68,29.79,10.0,WSW,19.6,28.8,0.00,Rain,Light Rain,250,2014-03-12 15:39:00
11:53 AM,71.1,64.0,78,29.78,5.0,West,12.7,21.9,0.00,Rain,Rain,280,2014-03-12 15:53:00
12:11 PM,70.0,62.1,76,29.78,10.0,West,16.1,25.3,0.01,,Scattered Clouds,260,2014-03-12 16:11:00
12:53 PM,73.9,60.1,62,29.76,10.0,West,18.4,25.3,0.01,,Mostly Cloudy,270,2014-03-12 16:53:00
1:53 PM,77.0,59.0,54,29.74,10.0,West,20.7,-,N/A,,Mostly Cloudy,260,2014-03-12 17:53:00
2:53 PM,77.0,57.9,52,29.72,10.0,West,21.9,32.2,N/A,,Mostly Cloudy,260,2014-03-12 18:53:00
3:53 PM,75.9,57.9,54,29.71,10.0,West,21.9,28.8,N/A,,Mostly Cloudy,280,2014-03-12 19:53:00
4:53 PM,73.9,59.0,59,29.71,10.0,WSW,18.4,32.2,N/A,,Mostly Cloudy,250,2014-03-12 20:53:00
5:53 PM,73.0,55.9,55,29.70,10.0,West,18.4,31.1,N/A,,Clear,260,2014-03-12 21:53:00
6:53 PM,70.0,55.9,61,29.70,10.0,WSW,13.8,21.9,N/A,,Clear,250,2014-03-12 22:53:00
7:53 PM,64.9,55.9,73,29.73,10.0,WSW,15.0,-,N/A,,Clear,240,2014-03-12 23:53:00
8:53 PM,63.0,57.0,81,29.76,10.0,WSW,11.5,-,N/A,,Clear,240,2014-03-13 00:53:00
9:53 PM,62.1,57.0,84,29.78,10.0,WSW,11.5,-,N/A,,Clear,240,2014-03-13 01:53:00
10:53 PM,61.0,57.9,90,29.81,8.0,WSW,11.5,-,N/A,,Clear,250,2014-03-13 02:53:00
11:53 PM,62.1,57.9,86,29.83,8.0,West,16.1,-,N/A,,Scattered Clouds,270,2014-03-13 03:53:00